Hourly Weather Barmuty

Today, 18 April, Sunday

Time Temperature Precipitation Wind Pressure Humidity
00:00 +7°C° 0 mm 1 mps 750 mmHg 86%
01:00 +7°C° 0 mm 1 mps 750 mmHg 86%
02:00 +7°C° 0 mm 1 mps 750 mmHg 86%
03:00 +7°C° 0 mm 1 mps 750 mmHg 85%
04:00 +7°C° 0 mm 1 mps 750 mmHg 85%
05:00 +6°C° 0 mm 2 mps 750 mmHg 85%
06:00 +8°C° 0 mm 1 mps 750 mmHg 83%
07:00 +9°C° 0 mm 1 mps 750 mmHg 81%
08:00 +10°C° 0 mm 1 mps 750 mmHg 79%
09:00 +10°C° 0 mm 1 mps 750 mmHg 79%
10:00 +11°C° 0 mm 1 mps 750 mmHg 79%
11:00 +12°C° 0 mm 2 mps 750 mmHg 80%
12:00 +13°C° 0.1 mm 2 mps 750 mmHg 75%
13:00 +14°C° 0.1 mm 2 mps 750 mmHg 70%
14:00 +15°C° 0.1 mm 2 mps 750 mmHg 65%
15:00 +15°C° 0.3 mm 2 mps 750 mmHg 67%
16:00 +15°C° 0.3 mm 2 mps 749 mmHg 68%
17:00 +14°C° 0.3 mm 3 mps 749 mmHg 70%
18:00 +13°C° 0.1 mm 3 mps 750 mmHg 75%
19:00 +11°C° 0.1 mm 3 mps 750 mmHg 80%
20:00 +10°C° 0.1 mm 3 mps 750 mmHg 85%
21:00 +10°C° 0 mm 3 mps 750 mmHg 85%
22:00 +9°C° 0 mm 3 mps 751 mmHg 86%
23:00 +8°C° 0 mm 3 mps 751 mmHg 86%

Tomorrow, 19 April, Monday

Time Temperature Precipitation Wind Pressure Humidity
00:00 +7°C° 0 mm 3 mps 751 mmHg 88%
01:00 +5°C° 0 mm 3 mps 751 mmHg 90%
02:00 +4°C° 0 mm 3 mps 751 mmHg 92%
03:00 +4°C° 0 mm 3 mps 751 mmHg 93%
04:00 +3°C° 0 mm 3 mps 751 mmHg 93%
05:00 +3°C° 0 mm 3 mps 751 mmHg 93%
06:00 +4°C° 0 mm 4 mps 751 mmHg 88%
07:00 +5°C° 0 mm 4 mps 751 mmHg 83%
08:00 +7°C° 0 mm 5 mps 751 mmHg 77%
09:00 +7°C° 0 mm 5 mps 751 mmHg 73%
10:00 +8°C° 0 mm 6 mps 751 mmHg 68%
11:00 +9°C° 0 mm 6 mps 750 mmHg 63%
12:00 +9°C° 0 mm 6 mps 750 mmHg 65%
13:00 +8°C° 0 mm 5 mps 750 mmHg 66%
14:00 +8°C° 0 mm 4 mps 750 mmHg 67%
15:00 +8°C° 0 mm 4 mps 750 mmHg 68%
16:00 +8°C° 0 mm 4 mps 750 mmHg 69%
17:00 +8°C° 0 mm 4 mps 750 mmHg 70%
18:00 +8°C° 0 mm 4 mps 750 mmHg 72%
19:00 +7°C° 0 mm 4 mps 750 mmHg 74%
20:00 +7°C° 0 mm 4 mps 750 mmHg 76%
21:00 +7°C° 0 mm 3 mps 750 mmHg 77%
22:00 +7°C° 0 mm 3 mps 749 mmHg 79%
23:00 +7°C° 0 mm 3 mps 749 mmHg 80%

Day after tomorrow, 20 April, Tuesday

Time Temperature Precipitation Wind Pressure Humidity
00:00 +5°C° 0 mm 3 mps 749 mmHg 82%
01:00 +6°C° 0 mm 2 mps 749 mmHg 84%
02:00 +5°C° 0 mm 2 mps 748 mmHg 87%
03:00 +5°C° 0 mm 2 mps 748 mmHg 88%
04:00 +5°C° 0 mm 2 mps 748 mmHg 90%
05:00 +5°C° 0 mm 2 mps 748 mmHg 92%
06:00 +5°C° 0 mm 3 mps 748 mmHg 89%
07:00 +5°C° 0 mm 3 mps 748 mmHg 87%
08:00 +7°C° 0 mm 3 mps 748 mmHg 84%
09:00 +8°C° 0.2 mm 3 mps 748 mmHg 81%
10:00 +7°C° 0.2 mm 4 mps 747 mmHg 77%
11:00 +8°C° 0.2 mm 4 mps 747 mmHg 74%
12:00 +10°C° 0.1 mm 4 mps 747 mmHg 70%
13:00 +10°C° 0.1 mm 3 mps 747 mmHg 66%
14:00 +11°C° 0.1 mm 3 mps 746 mmHg 62%
15:00 +11°C° 0.1 mm 3 mps 746 mmHg 61%
16:00 +11°C° 0.1 mm 3 mps 746 mmHg 60%
17:00 +11°C° 0.1 mm 3 mps 746 mmHg 59%
18:00 +9°C° 0 mm 3 mps 746 mmHg 65%
19:00 +8°C° 0 mm 2 mps 746 mmHg 70%
20:00 +7°C° 0 mm 2 mps 746 mmHg 76%
21:00 +6°C° 0 mm 2 mps 746 mmHg 79%
22:00 +6°C° 0 mm 1 mps 746 mmHg 82%
23:00 +5°C° 0 mm 1 mps 745 mmHg 85%

21 April, Wednesday

Time Temperature Precipitation Wind Pressure Humidity
00:00 +5°C° 0 mm 1 mps 745 mmHg 86%
01:00 +5°C° 0 mm 1 mps 745 mmHg 87%
02:00 +4°C° 0 mm 1 mps 745 mmHg 87%
03:00 +4°C° 0 mm 1 mps 745 mmHg 89%
04:00 +3°C° 0 mm 2 mps 745 mmHg 90%
05:00 +3°C° 0 mm 2 mps 744 mmHg 91%
06:00 +4°C° 0 mm 2 mps 744 mmHg 86%
07:00 +6°C° 0 mm 2 mps 744 mmHg 81%
08:00 +7°C° 0 mm 3 mps 744 mmHg 76%
09:00 +9°C° 0.1 mm 3 mps 744 mmHg 72%
10:00 +10°C° 0.1 mm 4 mps 744 mmHg 67%
11:00 +11°C° 0.1 mm 4 mps 744 mmHg 63%
12:00 +10°C° 0.2 mm 5 mps 744 mmHg 61%
13:00 +12°C° 0.2 mm 5 mps 744 mmHg 58%
14:00 +12°C° 0.2 mm 5 mps 744 mmHg 56%
15:00 +12°C° 0.2 mm 5 mps 744 mmHg 56%
16:00 +12°C° 0.2 mm 5 mps 744 mmHg 57%
17:00 +12°C° 0.2 mm 4 mps 744 mmHg 57%
18:00 +11°C° 0.1 mm 4 mps 744 mmHg 64%
19:00 +9°C° 0.1 mm 3 mps 744 mmHg 70%
20:00 +8°C° 0.1 mm 2 mps 745 mmHg 77%
21:00 +8°C° 0 mm 2 mps 745 mmHg 79%
22:00 +7°C° 0 mm 2 mps 745 mmHg 81%
23:00 +7°C° 0 mm 2 mps 745 mmHg 83%

22 April, Thursday

Time Temperature Precipitation Wind Pressure Humidity
00:00 +7°C° 0.1 mm 2 mps 745 mmHg 85%
01:00 +7°C° 0.1 mm 3 mps 745 mmHg 88%
02:00 +7°C° 0.1 mm 3 mps 745 mmHg 91%
03:00 +5°C° 0 mm 3 mps 745 mmHg 92%
04:00 +4°C° 0 mm 3 mps 746 mmHg 93%
05:00 +4°C° 0 mm 3 mps 746 mmHg 94%
06:00 +5°C° 0 mm 3 mps 746 mmHg 88%
07:00 +8°C° 0 mm 3 mps 746 mmHg 81%
08:00 +9°C° 0 mm 3 mps 747 mmHg 75%
09:00 +10°C° 0 mm 4 mps 747 mmHg 70%
10:00 +11°C° 0 mm 4 mps 747 mmHg 66%
11:00 +13°C° 0 mm 5 mps 748 mmHg 61%
12:00 +12°C° 0.1 mm 5 mps 748 mmHg 64%
13:00 +10°C° 0.1 mm 5 mps 748 mmHg 67%
14:00 +11°C° 0.1 mm 4 mps 749 mmHg 69%
15:00 +11°C° 0 mm 4 mps 749 mmHg 68%
16:00 +11°C° 0 mm 3 mps 749 mmHg 67%
17:00 +11°C° 0 mm 3 mps 749 mmHg 65%
18:00 +10°C° 0 mm 2 mps 750 mmHg 68%
19:00 +9°C° 0 mm 2 mps 750 mmHg 71%
20:00 +8°C° 0 mm 2 mps 750 mmHg 73%
21:00 +8°C° 0.6 mm 2 mps 750 mmHg 79%
22:00 +7°C° 0.6 mm 2 mps 750 mmHg 84%
23:00 +7°C° 0.6 mm 2 mps 750 mmHg 89%

23 April, Friday

Time Temperature Precipitation Wind Pressure Humidity
00:00 +7°C° 1.1 mm 2 mps 751 mmHg 90%
01:00 +6°C° 1.1 mm 2 mps 751 mmHg 91%
02:00 +6°C° 1.1 mm 2 mps 751 mmHg 92%
03:00 +6°C° 0 mm 2 mps 751 mmHg 92%
04:00 +6°C° 0 mm 2 mps 751 mmHg 92%
05:00 +5°C° 0 mm 2 mps 751 mmHg 92%
06:00 +6°C° 0 mm 2 mps 751 mmHg 89%
07:00 +6°C° 0 mm 2 mps 751 mmHg 87%
08:00 +7°C° 0 mm 2 mps 752 mmHg 84%
09:00 +7°C° 0.3 mm 2 mps 752 mmHg 82%
10:00 +7°C° 0.3 mm 2 mps 752 mmHg 79%
11:00 +8°C° 0.3 mm 2 mps 752 mmHg 76%
12:00 +8°C° 0.5 mm 2 mps 752 mmHg 77%
13:00 +8°C° 0.5 mm 2 mps 752 mmHg 78%
14:00 +8°C° 0.5 mm 2 mps 752 mmHg 79%
15:00 +7°C° 0.6 mm 3 mps 752 mmHg 80%
16:00 +7°C° 0.6 mm 3 mps 752 mmHg 81%
17:00 +7°C° 0.6 mm 3 mps 752 mmHg 83%
18:00 +7°C° 0.1 mm 3 mps 753 mmHg 85%
19:00 +6°C° 0.1 mm 2 mps 753 mmHg 88%
20:00 +6°C° 0.1 mm 2 mps 753 mmHg 90%
21:00 +6°C° 0 mm 2 mps 753 mmHg 91%
22:00 +6°C° 0 mm 2 mps 753 mmHg 91%
23:00 +6°C° 0 mm 2 mps 753 mmHg 91%
Show more